Location: ???????
(55.4362°N, 38.1183°E)
Time: 12:03:19
(UTC+00:00)

FALCON 9 DEB - Visible Passes

Search period start: 23 October 2021 00:00
Search period end: 02 November 2021 00:00
Orbit: 353 x 365 km, 53.0° (Epoch: 22 October)

Date Brightness Start Highest point End Pass type
(mag) Time Alt. Az. Time Alt. Az. Time Alt. Az.
28 Oct 4.9 15:45:56 10° S 15:47:19 15° SSE 15:47:19 15° SSE visible
29 Oct 4.7 16:13:25 10° SW 16:14:53 22° SSW 16:14:53 22° SSW visible
30 Oct 4.7 15:07:19 10° SSW 15:09:26 18° SSE 15:10:38 15° ESE visible
30 Oct 5.4 16:41:26 10° WSW 16:42:20 17° SW 16:42:20 17° SW visible
31 Oct 3.8 15:34:50 10° SW 15:37:32 31° SSE 15:37:58 30° SE visible
31 Oct 6.3 17:09:40 10° WSW 17:09:41 10° WSW 17:09:41 10° WSW visible
01 Nov 4.6 14:28:31 10° SSW 14:30:46 20° SSE 14:33:02 10° E visible
01 Nov 3.6 16:02:48 10° WSW 16:05:13 42° SSW 16:05:13 42° SSW visible
